Weather History for Tampa, FL

Change the Weather History Date:

Friday, August 30, 2013

  Actual Average Record
Temperature  
Mean Temperature 82 °F 83 °F  
Max Temperature 89 °F 90 °F 96 °F (1951)
Min Temperature 75 °F 76 °F 66 °F (1896)
Degree Days  
Heating Degree Days 0 0  
Month to date heating degree days 0 0  
Since 1 June heating degree days 0 0  
Since 1 July heating degree days 0 0  
Cooling Degree Days 17 18  
Month to date cooling degree days 573 540  
Year to date cooling degree days 2620 2491  
Since 1 June cooling degree days 1645 1614  
Growing Degree Days 32 (Base 50)    
Moisture  
Dew Point 74 °F    
Average Humidity 74    
Maximum Humidity 85    
Minimum Humidity 63    
Precipitation  
Precipitation 0.21 in 0.24 in 3.04 in (1909)
Month to date precipitation 11.66 7.52  
Year to date precipitation 42.27 33.47  
Sea Level Pressure  
Sea Level Pressure 29.97 in    
Wind  
Wind Speed 4 mph (WSW)    
Max Wind Speed 16 mph    
Max Gust Speed 25 mph    
Visibility 9 miles    
Events Rain , Thunderstorm    
T = Trace of Precipitation, MM = Missing Value Source: NWS Daily Summary

Daily Weather History Graph

Daily Weather History Graph

Search for Another Location

Airport:

Trip Planner

Search our weather history database for the weather conditions in past years. The results will help you decide how hot, cold, wet, or windy it might be!

Date:

Astronomy

Aug. 30, 2013 Rise Set
Actual Time 7:07 AM EDT 7:52 PM EDT
Civil Twilight 6:44 AM EDT 8:16 PM EDT
Nautical Twilight 6:15 AM EDT 8:44 PM EDT
Astronomical Twilight 5:47 AM EDT 9:13 PM EDT
Moon 2:00 AM EDT (8/30) 3:53 PM EDT (8/30)
Length of Visible Light 13h 32m
Length of Day
12h 45m
Waning Crescent, 29% of the Moon is Illuminated
Aug 30
Waning Crescent
Sep 5
New
Sep 12
First Quarter
Sep 19
Full
Sep 26
Last Quarter

Hourly Weather History & Observations

Time (EDT) Temp. Heat Index Dew Point Humidity Pressure Visibility Wind Dir Wind Speed Gust Speed Precip Events Conditions
12:53 AM 81.0 °F 86.2 °F 73.9 °F 79% 30.00 in 10.0 mi Calm Calm - N/A   Scattered Clouds
1:53 AM 82.0 °F 87.9 °F 73.9 °F 76% 29.99 in 10.0 mi Calm Calm - N/A   Scattered Clouds
2:53 AM 80.1 °F 84.5 °F 73.9 °F 81% 29.98 in 10.0 mi Calm Calm - N/A   Scattered Clouds
3:53 AM 80.1 °F 84.5 °F 73.9 °F 81% 29.96 in 10.0 mi Calm Calm - N/A   Scattered Clouds
4:53 AM 81.0 °F 86.2 °F 73.9 °F 79% 29.96 in 10.0 mi Calm Calm - N/A   Mostly Cloudy
5:53 AM 81.0 °F 86.7 °F 75.0 °F 82% 29.96 in 10.0 mi Calm Calm - N/A   Scattered Clouds
6:53 AM 80.1 °F 85.1 °F 75.0 °F 85% 29.97 in 10.0 mi Calm Calm - N/A   Scattered Clouds
7:53 AM 81.0 °F 86.7 °F 75.0 °F 82% 29.98 in 10.0 mi Calm Calm - N/A   Scattered Clouds
8:53 AM 84.0 °F 91.9 °F 75.0 °F 74% 29.99 in 10.0 mi North 3.5 mph - N/A   Scattered Clouds
9:53 AM 86.0 °F 95.1 °F 75.0 °F 70% 30.00 in 10.0 mi Calm Calm - N/A   Scattered Clouds
10:53 AM 82.9 °F 88.0 °F 72.0 °F 69% 30.00 in 10.0 mi West 9.2 mph - N/A   Mostly Cloudy
11:10 AM 78.8 °F - 73.4 °F 83% 30.01 in 7.0 mi NNW 11.5 mph 20.7 mph 0.00 in Rain Light Rain
11:13 AM 78.8 °F - 73.4 °F 83% 30.02 in 1.2 mi NW 15.0 mph - 0.01 in Rain Light Rain
11:15 AM 75.2 °F - 71.6 °F 89% 30.02 in 4.0 mi NW 13.8 mph - 0.07 in Rain , Thunderstorm Light Thunderstorms and Rain
11:29 AM 77.0 °F - 73.4 °F 89% 30.02 in 4.0 mi NE 5.8 mph - 0.19 in Rain , Thunderstorm Thunderstorms and Rain
11:43 AM 78.8 °F - 73.4 °F 83% 30.01 in 8.0 mi SE 4.6 mph - 0.21 in Rain Light Rain
11:53 AM 81.0 °F 85.2 °F 72.0 °F 74% 30.01 in 10.0 mi SSE 3.5 mph - 0.21 in   Mostly Cloudy
12:53 PM 84.9 °F 90.1 °F 71.1 °F 63% 29.99 in 10.0 mi South 4.6 mph - N/A   Scattered Clouds
1:53 PM 88.0 °F 96.5 °F 73.9 °F 63% 29.98 in 10.0 mi SW 5.8 mph - N/A   Scattered Clouds
2:53 PM 84.9 °F 90.1 °F 71.1 °F 63% 29.96 in 10.0 mi West 5.8 mph 18.4 mph N/A   Mostly Cloudy
3:53 PM 87.1 °F 95.4 °F 73.9 °F 65% 29.95 in 10.0 mi WSW 5.8 mph - N/A   Mostly Cloudy
4:53 PM 86.0 °F 93.0 °F 73.0 °F 65% 29.92 in 10.0 mi SW 9.2 mph - N/A   Scattered Clouds
5:53 PM 86.0 °F 95.1 °F 75.0 °F 70% 29.92 in 10.0 mi SW 9.2 mph - N/A   Scattered Clouds
6:46 PM 87.8 °F 97.6 °F 75.2 °F 66% 29.92 in 10.0 mi WSW 6.9 mph - N/A Thunderstorm Thunderstorm
6:53 PM 87.1 °F 95.4 °F 73.9 °F 65% 29.92 in 10.0 mi West 10.4 mph 20.7 mph N/A Thunderstorm Thunderstorm
7:20 PM 84.2 °F 90.9 °F 73.4 °F 70% 29.92 in 10.0 mi Variable 3.5 mph - 0.00 in   Mostly Cloudy
7:53 PM 84.0 °F 91.9 °F 75.0 °F 74% 29.91 in 10.0 mi WNW 8.1 mph - 0.00 in   Mostly Cloudy
8:53 PM 84.0 °F 92.6 °F 75.9 °F 76% 29.93 in 10.0 mi Calm Calm - N/A   Mostly Cloudy
9:53 PM 82.9 °F 90.8 °F 75.9 °F 79% 29.95 in 10.0 mi Calm Calm - N/A   Scattered Clouds
10:26 PM 82.4 °F 89.5 °F 75.2 °F 79% 29.97 in 10.0 mi ESE 3.5 mph - N/A Thunderstorm Thunderstorm
10:53 PM 80.1 °F 84.2 °F 73.0 °F 79% 29.96 in 10.0 mi South 8.1 mph 19.6 mph N/A Thunderstorm Thunderstorm
11:26 PM 80.6 °F 85.4 °F 73.4 °F 79% 29.96 in 10.0 mi SW 6.9 mph - N/A   Overcast
11:53 PM 82.0 °F 86.7 °F 72.0 °F 71% 29.96 in 10.0 mi SW 3.5 mph - N/A   Overcast